Location: Unspecified
(0.0000°N, 0.0000°E)
Time: 22:51:38
(UTC+00:00)

N. Korean satellite - Pass Details

Date: 21 April 2018
Orbit: 458 x 514 km, 97.2° (Epoch: 24 April)

Event Time Altitude Azimuth Distance (km) Brightness Sun altitude
Rises 05:27:27 0° 42° (NE) 2,464 11.1 -7.7°
Reaches altitude 10° 05:30:15 10° 68° (ENE) 1,596 10.9 -7.0°
Maximum altitude 05:32:06 14° 101° (ESE) 1,369 10.0 -6.5°
Drops below altitude 10° 05:33:59 10° 135° (SE) 1,606 9.7 -6.1°
Sets 05:36:48 0° 160° (SSE) 2,491 10.3 -5.4°
